Location: Astronomy Club of Akron Observatory
(40.9700°N, 81.5606°W)
Time: 05:29:41
(UTC-05:00)

Daily predictions for brighter satellites

Satellite Brightness Start Highest point End
(mag) Time Altitude Azimuth Time Altitude Azimuth Time Altitude Azimuth
Cosmos 2278 Rocket 3.7 04:02:21 33° ESE 04:02:21 33° ESE 04:05:48 10° SE
Cosmos 1459 Rocket 4.3 04:18:05 60° E 04:18:05 60° E 04:24:04 10° SSE
Cosmos 2100 Rocket 4.2 04:22:59 71° E 04:22:59 71° E 04:29:15 10° SSE
Atlas Centaur 2 3.7 04:25:37 38° S 04:26:28 39° S 04:34:10 10° ESE
NOSS 0 Rocket 4.2 04:30:16 58° NNE 04:30:16 58° NNE 04:35:09 10° NNE
Cosmos 1802 Rocket 4.2 04:28:36 21° N 04:32:51 66° E 04:39:03 10° SSE
Lacrosse 5 rocket 4.4 04:34:50 10° SSE 04:37:27 15° ESE 04:40:07 10° E
Cosmos 2237 Rocket 2.6 04:38:45 56° NNE 04:38:45 56° NNE 04:43:12 10° NNE
Cosmos 2333 Rocket 3.5 04:40:56 29° N 04:40:56 29° N 04:43:46 10° NNE
Cosmos 1302 Rocket 3.9 04:54:36 72° S 04:55:07 84° ESE 05:00:22 10° NNE
BREEZE-M DEB (TANK) 4.4 04:53:27 38° NNW 04:55:41 52° NNE 05:17:17 10° E
Cosmos 2123 Rocket 4.2 04:54:10 10° S 05:00:18 70° E 05:06:33 10° NNE
Cosmos 2061 Rocket 3.9 04:55:46 10° NNW 05:02:11 72° W 05:08:34 10° S
Cosmos 1725 Rocket 4.2 04:56:14 10° N 05:02:25 67° E 05:08:32 10° SSE
Cosmos 2219 Rocket 3.8 05:06:55 20° NNW 05:06:55 20° NNW 05:09:03 10° N
Cosmos 1980 4.1 05:10:42 42° NNW 05:10:42 42° NNW 05:15:11 10° NNE
SL-16 R/B 2.4 05:05:22 10° SSW 05:10:59 70° ESE 05:16:38 10° NNE
USA 229 DEB 4.2 05:09:47 19° NNW 05:15:05 60° NE 05:22:19 10° SE
USA 229 4.3 05:09:52 19° NNW 05:15:10 60° NE 05:22:24 10° SE
IRS-P2 Rocket 4.5 05:12:12 10° NNE 05:17:31 87° WNW 05:22:44 10° SSW
Cosmos 1486 Rocket 3.9 05:18:19 39° NW 05:20:16 71° WSW 05:25:33 10° S
Meteor 2-10 Rocket 3.9 05:19:33 45° WNW 05:20:29 49° W 05:26:04 10° SSW
Abrixas rocket 4.0 05:22:26 23° NNE 05:22:26 23° NNE 05:24:08 10° NE
Cosmos 2016 Rocket 3.9 05:20:16 10° NNW 05:26:16 56° W 05:32:12 10° SSW
CZ-4B R/B 3.5 05:25:53 10° N 05:31:15 45° WNW 05:36:36 10° SW
Cosmos 2242 Rocket 3.5 05:31:12 32° NNW 05:33:04 59° W 05:37:23 10° S
Cosmos 1354 Rocket 4.1 05:28:40 12° NNW 05:33:30 78° ENE 05:38:44 10° SSE
Cosmos 2297 3.6 05:30:16 19° NNW 05:34:28 79° WSW 05:40:10 10° SSE
USA 32 4.2 05:29:28 10° S 05:34:40 76° E 05:39:54 10° N
Cosmos 1933 Rocket 3.4 05:31:18 10° SSW 05:35:37 75° W 05:40:01 10° N
DELTA 2 R/B (1) 3.6 05:35:12 35° W 05:37:39 79° S 05:43:15 10° E
COSMO-SKYMED 1 2.7 05:33:30 10° SSE 05:37:49 78° ENE 05:42:11 10° N
Cosmos 1892 2.6 05:34:07 10° SSW 05:37:52 56° W 05:41:37 10° N
CZ-2C R/B 3.8 05:33:21 10° NNE 05:38:16 42° E 05:43:05 10° SSE
Cosmos 2369 Rocket 4.2 05:35:35 10° N 05:40:02 23° NE 05:44:27 10° ESE
ISS -2.9 05:42:08 33° SSW 05:42:08 33° SSW 05:44:51 10° SSE
Cosmos 2278 Rocket 3.1 05:44:17 26° WSW 05:44:17 26° WSW 05:48:48 10° SSW
Cosmos 1437 4.5 05:53:33 19° SW 05:53:33 19° SW 05:54:47 10° SSW
USA 215 3.8 05:47:41 10° NE 05:54:08 60° SE 06:00:34 10° SSW
CZ-3B R/B 3.9 05:51:50 10° SSW 05:54:49 32° SE 05:56:30 10° ENE
MTI 4.2 05:53:20 10° S 05:56:20 38° W 05:56:54 34° WNW
Cosmos 1862 Rocket 3.9 05:53:25 11° NNW 05:57:31 42° W 06:01:43 10° SSW
EO 1 Del DPAF 3.4 05:56:14 10° S 05:59:57 51° W 06:03:43 10° NNW
Gbstr 26 Del rocket 4.3 05:58:39 20° NW 06:00:00 23° NNW 06:03:18 10° NE
Meteor 1-28 Rocket 4.3 06:00:18 10° SSW 06:03:25 24° W 06:03:43 24° W
Hubble Space Telescope 3.4 06:06:34 10° SSW 06:08:30 13° S 06:10:25 10° SE
Cosmos 1408 2.5 06:07:16 10° S 06:10:59 79° W 06:14:45 10° N
Cosmos 2084 Rocket 3.2 06:08:13 13° NNW 06:11:34 81° NE 06:15:26 10° SE
Intercosmos 25 3.0 06:12:03 10° N 06:15:16 79° W 06:19:18 10° S
Atlas Centaur 2 4.1 06:08:15 10° WSW 06:15:37 36° S 06:23:09 10° SE
Lacrosse 5 rocket 1.6 06:11:32 10° SW 06:16:09 79° NW 06:20:51 10° NE
Cosmos 2233 Rocket 4.1 06:10:52 10° NNW 06:16:46 51° W 06:22:38 10° SSW
Meteor 1-10 Rocket 4.4 06:13:05 10° N 06:19:02 87° E 06:24:59 10° S
Delta 2 Rocket 4.5 06:16:31 12° WSW 06:20:06 39° S 06:24:34 10° ESE
BREEZE-M DEB (TANK) 3.6 06:18:50 15° WNW 06:21:37 44° N 06:25:36 10° E
Cosmos 2237 Rocket 3.7 06:20:39 14° WNW 06:22:21 16° NW 06:25:41 10° NNW
Cosmos 1943 4.3 06:17:31 10° S 06:22:58 49° ESE 06:28:26 10° NE
NOAA 6 4.5 06:18:51 10° N 06:23:31 37° WNW 06:28:11 10° SW
Cosmos 2333 Rocket 4.1 06:22:59 10° NW 06:23:40 11° NW 06:24:48 10° NNW
Meteor 2-3 Rocket 4.2 06:18:56 10° SW 06:24:15 37° WNW 06:29:34 10° N
USA 267 4.3 06:19:34 10° E 06:25:28 37° NNE 06:31:22 10° NW
SKYMED 2 4.4 06:22:10 10° SSW 06:25:59 30° W 06:29:50 10° NW
Okean-O 3.4 06:23:16 10° N 06:27:08 30° WNW 06:31:00 10° SW
Cosmos 1992 Rocket 4.3 06:22:16 10° SW 06:27:15 44° WNW 06:32:15 10° N
Cosmos 1943 Rocket 3.7 06:25:02 10° N 06:30:15 36° ENE 06:35:26 10° SE
Cosmos 2221 Rocket 3.6 06:26:11 10° N 06:30:39 81° W 06:35:07 10° S
Okean 1-7 3.0 06:26:47 10° NNW 06:31:11 72° W 06:35:31 10° S
IDEFIX/ARIANE 42P 2.8 06:27:48 10° N 06:32:45 46° WNW 06:37:40 10° SW
DEBRIS 2.8 06:30:33 12° WNW 06:33:01 33° SW 06:34:58 10° SSE
CSL-04 Rocket 4.3 06:28:11 10° NNE 06:33:38 64° ESE 06:39:06 10° S
PSLV R/B 4.0 06:32:59 10° WSW 06:36:02 47° SSE 06:39:08 10° E
Cosmos 1484 Rocket 3.4 06:32:05 10° NNE 06:36:06 65° E 06:40:04 10° S
Thor Agena Rocket 3.5 06:36:17 10° S 06:41:20 66° WSW 06:46:24 10° NNW
Cosmos 1825 2.8 06:38:48 10° SW 06:42:15 34° WNW 06:45:44 10° N
Cosmos 1782 3.3 06:38:39 10° NNW 06:42:22 38° W 06:46:03 10° SSW
Cosmos 1513 Rocket 4.5 06:36:22 10° N 06:42:29 85° W 06:48:32 10° S
ATLAS 5 CENTAUR R/B 2.8 06:39:49 10° SSW 06:44:13 52° ESE 06:49:00 10° NE
NOSS 3-1 (C) 4.2 06:39:09 10° NW 06:46:50 75° WSW 06:55:17 10° SSE
Ariane Rocket 3.2 06:46:00 10° NNE 06:51:05 83° ESE 06:56:09 10° SSW
AQUARIUS 4.3 06:47:06 10° NNE 06:51:37 83° ESE 06:56:06 10° S
Cosmos 1891 Rocket 4.4 06:46:37 10° NNW 06:52:38 73° W 06:58:41 10° S
